Cheektowaga, NY

4:33 AM EDT on August 26, 2016 (GMT -0400)
Buffalo Niagara International

Weather History for KBUF - November, 2011

Change the Weather History Date:

Sunday, November 6, 2011

  Actual Average Record
Temperature  
Mean Temperature 46 °F 44 °F  
Max Temperature 62 °F 52 °F 73 °F (1948)
Min Temperature 30 °F 37 °F 12 °F (1951)
Degree Days  
Heating Degree Days 19 21  
Month to date heating degree days 112 121  
Since 1 July heating degree days 583 726  
Cooling Degree Days 0 0  
Month to date cooling degree days 0 0  
Year to date cooling degree days 776 544  
Moisture  
Dew Point 22 °F    
Average Humidity 43    
Maximum Humidity 63    
Minimum Humidity 23    
Precipitation  
Precipitation 0.00 in 0.13 in 1.01 in (2007)
Month to date precipitation T 0.79  
Year to date precipitation 42.84 33.37  
Snow  
Snow 0.00 in 0.20 in 7.00 in (1967)
Month to date snowfall 0.0 0.8  
Since 1 July snowfall T 1.7  
Since 1 September snowfall T 1.7  
Snow Depth 0.00 in    
Sea Level Pressure  
Sea Level Pressure 30.29 in    
Wind  
Wind Speed 8 mph (SSW)    
Max Wind Speed 17 mph    
Max Gust Speed 22 mph    
Visibility 10 miles    
Events      
T = Trace of Precipitation, MM = Missing Value Source: NWS Daily Summary

Daily Weather History Graph

Daily Weather History Graph

Search for Another Location

Airport or City:

Trip Planner

Search our weather history database for the weather conditions in past years. The results will help you decide how hot, cold, wet, or windy it might be!

Date:

Astronomy

Nov. 06, 2011 Rise Set
Actual Time 6:55 AM EST 5:01 PM EST
Civil Twilight 6:25 AM EST 5:31 PM EST
Nautical Twilight 5:51 AM EST 6:04 PM EST
Astronomical Twilight 5:18 AM EST 6:37 PM EST
Moon 2:48 PM EST (11/6) 2:55 AM EST (11/6)
Length of Visible Light 11h 05m
Length of Day
10h 05m
Waxing Gibbous, 85% of the Moon is Illuminated
Nov 6
Waxing Gibbous
Nov 10
Full
Nov 18
Last Quarter
Nov 25
New
Dec 2
First Quarter

Hourly Weather History & Observations

Time (EST) Temp. Windchill Dew Point Humidity Pressure Visibility Wind Dir Wind Speed Gust Speed Precip Events Conditions
12:54 AM 37.0 °F 33.3 °F 18.0 °F 46% 30.33 in 10.0 mi SSE 4.6 mph - N/A   Clear
1:54 AM 37.0 °F - 17.1 °F 44% 30.33 in 10.0 mi Calm Calm - N/A   Clear
1:54 AM 35.1 °F 31.0 °F 18.0 °F 50% 30.33 in 10.0 mi SSE 4.6 mph - N/A   Partly Cloudy
2:54 AM 30.9 °F 25.2 °F 19.9 °F 64% 30.32 in 10.0 mi South 5.8 mph - N/A   Partly Cloudy
3:54 AM 34.0 °F 31.0 °F 18.0 °F 52% 30.32 in 10.0 mi South 3.5 mph - N/A   Partly Cloudy
4:54 AM 35.1 °F 32.2 °F 17.1 °F 48% 30.34 in 10.0 mi South 3.5 mph - N/A   Partly Cloudy
5:54 AM 34.0 °F 28.8 °F 18.0 °F 52% 30.35 in 10.0 mi South 5.8 mph - N/A   Scattered Clouds
6:54 AM 33.8 °F 28.6 °F 17.6 °F 52% 30.33 in 10.0 mi South 5.8 mph - N/A   Scattered Clouds
7:54 AM 39.0 °F 34.8 °F 18.0 °F 43% 30.36 in 10.0 mi SSE 5.8 mph - N/A   Scattered Clouds
8:54 AM 42.1 °F 38.4 °F 23.0 °F 47% 30.37 in 10.0 mi SW 5.8 mph - N/A   Scattered Clouds
9:54 AM 50.0 °F - 21.0 °F 32% 30.35 in 10.0 mi SW 10.4 mph - N/A   Scattered Clouds
10:54 AM 54.0 °F - 19.9 °F 26% 30.34 in 10.0 mi WSW 10.4 mph - N/A   Scattered Clouds
11:54 AM 57.9 °F - 19.9 °F 23% 30.30 in 10.0 mi SW 11.5 mph - N/A   Scattered Clouds
12:54 PM 60.1 °F - 23.0 °F 24% 30.27 in 10.0 mi SSW 15.0 mph - N/A   Partly Cloudy
1:54 PM 61.0 °F - 23.0 °F 23% 30.26 in 10.0 mi WSW 12.7 mph - N/A   Scattered Clouds
2:54 PM 60.1 °F - 24.1 °F 25% 30.24 in 10.0 mi WSW 10.4 mph - N/A   Mostly Cloudy
3:54 PM 59.0 °F - 27.0 °F 29% 30.22 in 10.0 mi SW 8.1 mph - N/A   Mostly Cloudy
4:54 PM 55.0 °F - 28.0 °F 35% 30.23 in 10.0 mi West 6.9 mph - N/A   Mostly Cloudy
5:54 PM 54.0 °F - 28.0 °F 37% 30.25 in 10.0 mi Calm Calm - N/A   Mostly Cloudy
6:54 PM 50.0 °F - 30.9 °F 48% 30.24 in 10.0 mi South 5.8 mph - N/A   Mostly Cloudy
7:54 PM 50.0 °F - 25.0 °F 38% 30.23 in 10.0 mi South 11.5 mph - N/A   Scattered Clouds
8:54 PM 46.0 °F 41.9 °F 24.1 °F 42% 30.22 in 10.0 mi South 8.1 mph - N/A   Scattered Clouds
9:54 PM 46.9 °F - 24.1 °F 41% 30.21 in 10.0 mi SSW 10.4 mph - N/A   Scattered Clouds
10:54 PM 50.0 °F - 26.1 °F 39% 30.22 in 10.0 mi SW 13.8 mph - N/A   Scattered Clouds